TNO1168 SVMI-TFFR

Flight info

Callsign TNO1168
Flight time 1h 15m
Altitude 37000
Route SOSKA2 OPUTU DCT OPMEB UA550 ITEGO DCT PELMA DCT TULEX TULEX1A
Aircraft B737/M-SDE2E3FGHIRWXY/LB1

Departure

Time 2026-04-26 15:24
Airport Maiquetía Simón Bolívar International Airport (SVMI)

Arrival

Time 2026-04-26 16:40
Airport Maryse Condé International Airport (TFFR)
Time Latitude Longitude Altitude Speed Heading
2026-04-26 14:51 10.59826 -67.00457 227 ft 0 kts 178°
2026-04-26 15:16 10.59844 -67.00458 227 ft 3 kts 178°
2026-04-26 15:17 10.59866 -67.00459 227 ft 3 kts 178°
2026-04-26 15:17 10.59880 -67.00459 228 ft 3 kts 178°
2026-04-26 15:17 10.59908 -67.00460 228 ft 3 kts 178°
2026-04-26 15:17 10.59929 -67.00461 227 ft 3 kts 178°
2026-04-26 15:18 10.59950 -67.00462 227 ft 3 kts 178°
2026-04-26 15:18 10.59969 -67.00463 227 ft 1 kts 178°
2026-04-26 15:20 10.59962 -67.00462 227 ft 3 kts 179°
2026-04-26 15:20 10.59930 -67.00456 228 ft 8 kts 144°
2026-04-26 15:21 10.59923 -67.00372 225 ft 17 kts 88°
2026-04-26 15:21 10.59989 -67.00293 224 ft 17 kts 356°
2026-04-26 15:21 10.60102 -67.00281 225 ft 17 kts 46°
2026-04-26 15:21 10.60115 -67.00168 222 ft 16 kts 89°
2026-04-26 15:22 10.60119 -67.00057 220 ft 15 kts 88°
2026-04-26 15:22 10.60123 -66.99951 218 ft 15 kts 84°
2026-04-26 15:22 10.60135 -66.99837 214 ft 18 kts 88°
2026-04-26 15:22 10.60137 -66.99706 214 ft 17 kts 97°
2026-04-26 15:23 10.60059 -66.99664 217 ft 12 kts 179°
2026-04-26 15:23 10.59973 -66.99662 218 ft 12 kts 178°
2026-04-26 15:23 10.59904 -66.99641 218 ft 10 kts 103°
2026-04-26 15:23 10.59907 -66.99622 215 ft 1 kts 75°
2026-04-26 15:24 10.59936 -66.99506 210 ft 53 kts 76°
2026-04-26 15:24 10.60099 -66.98846 182 ft 136 kts 76°
2026-04-26 15:24 10.60384 -66.97698 327 ft 188 kts 76°
2026-04-26 15:24 10.60711 -66.96372 1316 ft 196 kts 76°
2026-04-26 15:25 10.61033 -66.95000 2272 ft 206 kts 77°
2026-04-26 15:25 10.61231 -66.94032 2737 ft 215 kts 79°
2026-04-26 15:25 10.61581 -66.91858 3397 ft 255 kts 82°
2026-04-26 15:25 10.61878 -66.90041 4332 ft 263 kts 82°
2026-04-26 15:26 10.62188 -66.88235 5487 ft 264 kts 81°
2026-04-26 15:26 10.62511 -66.86383 6572 ft 267 kts 81°
2026-04-26 15:26 10.62840 -66.84501 7565 ft 273 kts 81°
2026-04-26 15:26 10.63175 -66.82582 8531 ft 278 kts 81°
2026-04-26 15:27 10.63517 -66.80621 9459 ft 284 kts 81°
2026-04-26 15:27 10.63865 -66.78625 10379 ft 289 kts 81°
2026-04-26 15:27 10.64226 -66.76542 10836 ft 311 kts 81°
2026-04-26 15:27 10.64615 -66.74298 10991 ft 329 kts 81°
2026-04-26 15:28 10.65018 -66.71975 11490 ft 336 kts 81°
2026-04-26 15:28 10.65424 -66.69636 12439 ft 336 kts 81°
2026-04-26 15:28 10.65833 -66.67286 13327 ft 339 kts 81°
2026-04-26 15:28 10.66241 -66.64933 14066 ft 345 kts 81°
2026-04-26 15:29 10.66660 -66.62512 14832 ft 350 kts 81°
2026-04-26 15:29 10.67084 -66.60060 15558 ft 355 kts 81°
2026-04-26 15:29 10.67942 -66.55108 15977 ft 357 kts 81°
2026-04-26 15:30 10.68821 -66.50125 15991 ft 358 kts 77°
2026-04-26 15:30 10.69708 -66.47758 16026 ft 359 kts 65°
2026-04-26 15:30 10.70821 -66.45448 16513 ft 366 kts 64°
2026-04-26 15:31 10.71963 -66.43125 17297 ft 368 kts 64°
2026-04-26 15:31 10.74229 -66.38452 18705 ft 375 kts 65°
2026-04-26 15:31 10.75372 -66.36055 19342 ft 379 kts 65°
2026-04-26 15:32 10.76918 -66.32793 20162 ft 385 kts 65°
2026-04-26 15:32 10.78864 -66.28676 21145 ft 392 kts 65°
2026-04-26 15:32 10.80051 -66.26164 21718 ft 396 kts 65°
2026-04-26 15:33 10.81254 -66.23630 22256 ft 400 kts 64°
2026-04-26 15:33 10.82852 -66.21299 22736 ft 407 kts 45°
2026-04-26 15:33 10.85053 -66.19469 23283 ft 410 kts 38°
2026-04-26 15:33 10.87371 -66.17749 23772 ft 414 kts 37°
2026-04-26 15:34 10.89732 -66.16036 24218 ft 419 kts 36°
2026-04-26 15:34 10.92114 -66.14307 24667 ft 422 kts 36°
2026-04-26 15:34 10.94508 -66.12556 25108 ft 425 kts 37°
2026-04-26 15:34 10.96915 -66.10779 25543 ft 428 kts 37°
2026-04-26 15:35 10.99334 -66.08981 25954 ft 433 kts 37°
2026-04-26 15:35 11.01741 -66.07186 26352 ft 436 kts 37°
2026-04-26 15:35 11.04194 -66.05353 26774 ft 439 kts 37°
2026-04-26 15:35 11.06667 -66.03502 27159 ft 443 kts 37°
2026-04-26 15:36 11.09157 -66.01638 27532 ft 446 kts 37°
2026-04-26 15:36 11.11671 -65.99756 27914 ft 449 kts 37°
2026-04-26 15:36 11.14197 -65.97866 28306 ft 452 kts 36°
2026-04-26 15:36 11.16732 -65.95967 28680 ft 454 kts 36°
2026-04-26 15:37 11.19294 -65.94049 28995 ft 459 kts 36°
2026-04-26 15:37 11.21874 -65.92117 29339 ft 461 kts 36°
2026-04-26 15:37 11.24468 -65.90174 29691 ft 464 kts 36°
2026-04-26 15:37 11.27079 -65.88218 30005 ft 467 kts 36°
2026-04-26 15:38 11.29710 -65.86246 30316 ft 470 kts 36°
2026-04-26 15:38 11.32353 -65.84264 30613 ft 473 kts 36°
2026-04-26 15:38 11.35010 -65.82271 30940 ft 475 kts 36°
2026-04-26 15:38 11.37641 -65.80298 31262 ft 477 kts 36°
2026-04-26 15:39 11.40315 -65.78293 31610 ft 478 kts 37°
2026-04-26 15:39 11.42990 -65.76287 32056 ft 476 kts 37°
2026-04-26 15:39 11.45686 -65.74336 32510 ft 475 kts 34°
2026-04-26 15:39 11.46608 -65.73699 32664 ft 474 kts 34°
2026-04-26 15:40 11.51196 -65.70641 33368 ft 473 kts 33°
2026-04-26 15:40 11.53964 -65.68827 33784 ft 472 kts 33°
2026-04-26 15:40 11.56725 -65.67012 34190 ft 472 kts 34°
2026-04-26 15:40 11.59476 -65.65193 34578 ft 471 kts 34°
2026-04-26 15:41 11.62213 -65.63372 34974 ft 469 kts 34°
2026-04-26 15:41 11.64939 -65.61552 35339 ft 468 kts 34°
2026-04-26 15:41 11.66746 -65.60341 35541 ft 469 kts 34°
2026-04-26 15:41 11.69476 -65.58511 35850 ft 469 kts 34°
2026-04-26 15:42 11.73078 -65.56093 36331 ft 467 kts 34°
2026-04-26 15:42 11.75788 -65.54273 36628 ft 466 kts 34°
2026-04-26 15:42 11.78499 -65.52453 36849 ft 468 kts 34°
2026-04-26 15:42 11.81220 -65.50624 37002 ft 470 kts 34°
2026-04-26 15:43 11.85827 -65.47530 36993 ft 473 kts 34°
2026-04-26 15:44 11.93938 -65.42082 36987 ft 463 kts 34°
2026-04-26 15:44 12.02001 -65.36662 37001 ft 462 kts 34°
2026-04-26 15:45 12.10050 -65.31246 37001 ft 462 kts 34°
2026-04-26 15:46 12.18096 -65.25826 36998 ft 461 kts 34°
2026-04-26 15:46 12.22554 -65.22823 37000 ft 461 kts 34°
2026-04-26 15:47 12.31478 -65.16807 37001 ft 460 kts 34°
2026-04-26 15:48 12.36786 -65.13225 36998 ft 460 kts 34°
2026-04-26 15:48 12.42134 -65.09615 37003 ft 460 kts 34°
2026-04-26 15:49 12.47470 -65.06012 37002 ft 459 kts 34°
2026-04-26 15:49 12.52803 -65.02410 36995 ft 459 kts 34°
2026-04-26 15:50 12.58124 -64.98814 37000 ft 458 kts 34°
2026-04-26 15:50 12.63440 -64.95218 36997 ft 458 kts 34°
2026-04-26 15:51 12.68751 -64.91624 37001 ft 458 kts 34°
2026-04-26 15:51 12.74065 -64.88027 36999 ft 457 kts 33°
2026-04-26 15:52 12.79376 -64.84429 36999 ft 458 kts 33°
2026-04-26 15:52 12.84686 -64.80829 37001 ft 458 kts 33°
2026-04-26 15:53 12.90004 -64.77223 37004 ft 458 kts 33°
2026-04-26 15:53 12.95326 -64.73614 37010 ft 459 kts 33°
2026-04-26 15:54 13.00620 -64.70018 37011 ft 459 kts 33°
2026-04-26 15:54 13.05948 -64.66400 37009 ft 459 kts 33°
2026-04-26 15:55 13.10984 -64.62387 37033 ft 458 kts 43°
2026-04-26 15:55 13.15593 -64.57847 37029 ft 459 kts 44°
2026-04-26 15:56 13.20201 -64.53293 37017 ft 460 kts 44°
2026-04-26 15:56 13.24847 -64.48766 37020 ft 461 kts 44°
2026-04-26 15:57 13.29511 -64.44247 37016 ft 461 kts 44°
2026-04-26 15:57 13.34174 -64.39723 37023 ft 461 kts 44°
2026-04-26 15:58 13.38818 -64.35219 37016 ft 462 kts 43°
2026-04-26 15:58 13.43563 -64.30772 37022 ft 462 kts 42°
2026-04-26 15:59 13.48336 -64.26344 37018 ft 462 kts 42°
2026-04-26 15:59 13.53099 -64.21900 37020 ft 463 kts 43°
2026-04-26 16:00 13.57862 -64.17440 37015 ft 463 kts 43°
2026-04-26 16:00 13.62621 -64.12983 37021 ft 463 kts 43°
2026-04-26 16:01 13.67337 -64.08467 37015 ft 463 kts 44°
2026-04-26 16:01 13.72015 -64.03920 37020 ft 463 kts 44°
2026-04-26 16:02 13.76702 -63.99368 37023 ft 464 kts 43°
2026-04-26 16:02 13.81398 -63.94819 37017 ft 464 kts 44°
2026-04-26 16:03 13.86099 -63.90266 37016 ft 464 kts 43°
2026-04-26 16:03 13.90792 -63.85715 37017 ft 464 kts 43°
2026-04-26 16:04 13.95456 -63.81190 37022 ft 463 kts 44°
2026-04-26 16:04 14.00143 -63.76639 37017 ft 463 kts 44°
2026-04-26 16:05 14.04833 -63.72086 37017 ft 463 kts 43°
2026-04-26 16:05 14.09519 -63.67530 37017 ft 463 kts 43°
2026-04-26 16:06 14.14200 -63.62978 37019 ft 463 kts 43°
2026-04-26 16:06 14.18898 -63.58415 37019 ft 463 kts 43°
2026-04-26 16:07 14.23589 -63.53866 37014 ft 464 kts 43°
2026-04-26 16:07 14.28291 -63.49305 37020 ft 464 kts 43°
2026-04-26 16:08 14.32987 -63.44743 37017 ft 464 kts 43°
2026-04-26 16:08 14.37654 -63.40203 37018 ft 464 kts 43°
2026-04-26 16:09 14.42354 -63.35629 37019 ft 465 kts 43°
2026-04-26 16:09 14.47055 -63.31053 37019 ft 465 kts 43°
2026-04-26 16:10 14.51756 -63.26473 37016 ft 465 kts 43°
2026-04-26 16:10 14.56458 -63.21889 37021 ft 465 kts 43°
2026-04-26 16:11 14.61165 -63.17298 37017 ft 465 kts 43°
2026-04-26 16:11 14.65875 -63.12701 37021 ft 466 kts 43°
2026-04-26 16:12 14.70586 -63.08101 37019 ft 466 kts 43°
2026-04-26 16:12 14.77665 -63.01183 37023 ft 467 kts 43°
2026-04-26 16:13 14.82380 -62.96574 36395 ft 473 kts 43°
2026-04-26 16:13 14.84759 -62.94245 35868 ft 470 kts 43°
2026-04-26 16:13 14.87124 -62.91929 35417 ft 466 kts 43°
2026-04-26 16:14 14.89466 -62.89637 34955 ft 462 kts 43°
2026-04-26 16:14 14.91793 -62.87357 34483 ft 459 kts 43°
2026-04-26 16:14 14.96389 -62.82852 33566 ft 452 kts 42°
2026-04-26 16:15 14.98662 -62.80622 33113 ft 448 kts 43°
2026-04-26 16:15 15.00917 -62.78411 32661 ft 445 kts 43°
2026-04-26 16:15 15.03157 -62.76213 32213 ft 442 kts 43°
2026-04-26 16:16 15.07592 -62.71860 31330 ft 436 kts 42°
2026-04-26 16:16 15.09792 -62.69700 30895 ft 434 kts 43°
2026-04-26 16:16 15.11973 -62.67557 30457 ft 431 kts 42°
2026-04-26 16:16 15.14139 -62.65428 30025 ft 428 kts 43°
2026-04-26 16:17 15.16293 -62.63312 29593 ft 425 kts 43°
2026-04-26 16:17 15.18401 -62.61240 29145 ft 422 kts 43°
2026-04-26 16:17 15.20522 -62.59155 28687 ft 419 kts 43°
2026-04-26 16:17 15.22625 -62.57086 28227 ft 416 kts 43°
2026-04-26 16:18 15.24717 -62.55028 27768 ft 413 kts 43°
2026-04-26 16:18 15.28855 -62.50954 26877 ft 408 kts 43°
2026-04-26 16:19 15.33009 -62.47003 25955 ft 403 kts 33°
2026-04-26 16:19 15.35401 -62.45542 25654 ft 395 kts 28°
2026-04-26 16:19 15.39419 -62.43321 24910 ft 392 kts 27°
2026-04-26 16:20 15.42633 -62.41564 24320 ft 389 kts 27°
2026-04-26 16:20 15.47360 -62.38945 23434 ft 386 kts 28°
2026-04-26 16:20 15.49716 -62.37624 22988 ft 384 kts 28°
2026-04-26 16:21 15.52056 -62.36307 22533 ft 382 kts 28°
2026-04-26 16:21 15.54385 -62.34991 22088 ft 380 kts 28°
2026-04-26 16:21 15.56704 -62.33680 21636 ft 378 kts 28°
2026-04-26 16:21 15.59009 -62.32377 21184 ft 376 kts 28°
2026-04-26 16:22 15.61300 -62.31080 20734 ft 374 kts 28°
2026-04-26 16:22 15.63582 -62.29788 20283 ft 372 kts 28°
2026-04-26 16:22 15.65849 -62.28503 19837 ft 370 kts 28°
2026-04-26 16:22 15.68102 -62.27226 19389 ft 368 kts 27°
2026-04-26 16:23 15.70341 -62.25958 18943 ft 366 kts 27°
2026-04-26 16:23 15.72571 -62.24694 18498 ft 363 kts 27°
2026-04-26 16:23 15.74779 -62.23442 18054 ft 361 kts 27°
2026-04-26 16:23 15.76978 -62.22195 17613 ft 358 kts 27°
2026-04-26 16:24 15.79157 -62.20959 17175 ft 356 kts 27°
2026-04-26 16:24 15.81318 -62.19734 16739 ft 353 kts 27°
2026-04-26 16:24 15.83468 -62.18515 16304 ft 351 kts 27°
2026-04-26 16:24 15.85603 -62.17303 15870 ft 348 kts 28°
2026-04-26 16:25 15.87718 -62.16101 15447 ft 345 kts 28°
2026-04-26 16:25 15.89817 -62.14910 15016 ft 342 kts 28°
2026-04-26 16:25 15.91897 -62.13728 14591 ft 339 kts 28°
2026-04-26 16:25 15.93960 -62.12557 14169 ft 337 kts 28°
2026-04-26 16:26 15.95980 -62.11409 13751 ft 334 kts 28°
2026-04-26 16:26 15.97354 -62.10628 13467 ft 332 kts 28°
2026-04-26 16:26 16.00022 -62.09111 12904 ft 328 kts 28°
2026-04-26 16:26 16.02020 -62.07975 12473 ft 326 kts 28°
2026-04-26 16:27 16.04001 -62.06849 12037 ft 323 kts 29°
2026-04-26 16:27 16.05965 -62.05731 11627 ft 320 kts 29°
2026-04-26 16:27 16.07911 -62.04624 11215 ft 318 kts 29°
2026-04-26 16:27 16.09830 -62.03532 10790 ft 309 kts 29°
2026-04-26 16:28 16.11683 -62.02477 10396 ft 299 kts 30°
2026-04-26 16:28 16.13483 -62.01453 10104 ft 287 kts 30°
2026-04-26 16:28 16.15185 -62.00485 9974 ft 271 kts 30°
2026-04-26 16:28 16.16800 -61.99566 9655 ft 258 kts 30°
2026-04-26 16:29 16.18338 -61.98690 9327 ft 247 kts 30°
2026-04-26 16:29 16.19809 -61.97851 9042 ft 236 kts 30°
2026-04-26 16:29 16.21223 -61.97044 8758 ft 226 kts 31°
2026-04-26 16:29 16.22574 -61.96274 8496 ft 216 kts 31°
2026-04-26 16:30 16.23866 -61.95537 8239 ft 209 kts 31°
2026-04-26 16:30 16.24707 -61.95057 8075 ft 208 kts 31°
2026-04-26 16:30 16.25968 -61.94339 7821 ft 206 kts 31°
2026-04-26 16:30 16.27151 -61.93537 7525 ft 201 kts 54°
2026-04-26 16:31 16.27649 -61.92253 7179 ft 188 kts 84°
2026-04-26 16:31 16.27886 -61.90954 6991 ft 180 kts 81°
2026-04-26 16:31 16.28152 -61.89684 6695 ft 179 kts 82°
2026-04-26 16:31 16.28421 -61.88434 6403 ft 175 kts 81°
2026-04-26 16:32 16.28695 -61.87197 6027 ft 175 kts 81°
2026-04-26 16:32 16.28969 -61.85979 5828 ft 169 kts 81°
2026-04-26 16:32 16.29242 -61.84791 5718 ft 169 kts 81°
2026-04-26 16:32 16.29519 -61.83579 5529 ft 175 kts 81°
2026-04-26 16:33 16.29805 -61.82341 5344 ft 176 kts 81°
2026-04-26 16:33 16.30087 -61.81127 5128 ft 173 kts 81°
2026-04-26 16:33 16.30371 -61.79917 4920 ft 171 kts 81°
2026-04-26 16:33 16.30652 -61.78714 4698 ft 166 kts 80°
2026-04-26 16:34 16.30911 -61.77580 4527 ft 160 kts 85°
2026-04-26 16:34 16.30747 -61.76478 4403 ft 152 kts 115°
2026-04-26 16:34 16.30540 -61.75324 4206 ft 169 kts 95°
2026-04-26 16:34 16.30403 -61.74124 3968 ft 166 kts 102°
2026-04-26 16:35 16.30187 -61.72962 3742 ft 162 kts 103°
2026-04-26 16:35 16.29977 -61.71830 3526 ft 158 kts 104°
2026-04-26 16:35 16.29769 -61.70716 3295 ft 155 kts 104°
2026-04-26 16:35 16.29559 -61.69608 3097 ft 157 kts 104°
2026-04-26 16:36 16.29355 -61.68491 2870 ft 156 kts 104°
2026-04-26 16:36 16.29155 -61.67403 2632 ft 148 kts 104°
2026-04-26 16:36 16.28969 -61.66392 2457 ft 135 kts 103°
2026-04-26 16:36 16.28794 -61.65449 2270 ft 130 kts 104°
2026-04-26 16:37 16.28622 -61.64528 2077 ft 132 kts 103°
2026-04-26 16:37 16.28448 -61.63577 1874 ft 134 kts 102°
2026-04-26 16:37 16.28274 -61.62620 1696 ft 135 kts 102°
2026-04-26 16:37 16.28093 -61.61658 1486 ft 136 kts 103°
2026-04-26 16:38 16.27920 -61.60670 1256 ft 140 kts 101°
2026-04-26 16:38 16.27741 -61.59669 1069 ft 138 kts 101°
2026-04-26 16:38 16.27569 -61.58680 855 ft 141 kts 101°
2026-04-26 16:38 16.27383 -61.57684 681 ft 139 kts 102°
2026-04-26 16:39 16.27186 -61.56698 508 ft 139 kts 103°
2026-04-26 16:39 16.27006 -61.55702 304 ft 139 kts 101°
2026-04-26 16:39 16.26822 -61.54728 114 ft 134 kts 101°
2026-04-26 16:39 16.26642 -61.53774 21 ft 129 kts 101°
2026-04-26 16:40 16.26512 -61.53078 25 ft 67 kts 101°
2026-04-26 16:40 16.26461 -61.52806 27 ft 25 kts 101°
2026-04-26 16:40 16.26428 -61.52635 27 ft 23 kts 102°
2026-04-26 16:40 16.26399 -61.52475 31 ft 22 kts 101°
2026-04-26 16:41 16.26370 -61.52318 37 ft 22 kts 100°
2026-04-26 16:41 16.26452 -61.52225 37 ft 21 kts
2026-04-26 16:41 16.26595 -61.52197 29 ft 22 kts 12°
2026-04-26 16:41 16.26730 -61.52223 23 ft 21 kts 288°
2026-04-26 16:42 16.26758 -61.52371 23 ft 20 kts 281°
2026-04-26 16:42 16.26778 -61.52473 22 ft 10 kts 281°
2026-04-26 16:42 16.26792 -61.52543 22 ft 10 kts 289°
2026-04-26 16:42 16.26817 -61.52547 22 ft 4 kts 13°
2026-04-26 16:43 16.26842 -61.52542 22 ft 4 kts
2026-04-26 16:43 16.26881 -61.52535 22 ft 4 kts
2026-04-26 16:43 16.26885 -61.52535 22 ft 0 kts 10°